Regional Weather Roundup
Issued by NWS

Home | Current Version | Previous Version | Graphics & Text | Print | Product List | Glossary On
Versions: 1 2 3 4 5 6 7 8 9 10 11 12 13 14 15 16 17 18 19 20 21 22 23 24 25 26 27 28 29 30 31 32 33 34 35 36 37 38 39 40 41 42 43 44 45 46 47 48 49 50
000
ASUS43 KBIS 280320
RWRND

NORTH DAKOTA REGIONAL WEATHER ROUNDUP
NATIONAL WEATHER SERVICE BISMARCK ND
1000 PM CDT MON APR 27 2015

NOTE: "FAIR" INDICATES FEW OR NO CLOUDS BELOW 12,000 FEET WITH NO
SIGNIFICANT WEATHER AND/OR OBSTRUCTIONS TO VISIBILITY.


NDZ001>003-009>011-017-280400-
NORTHWEST NORTH DAKOTA

CITY           SKY/WX    TMP DP  RH WIND       PRES   REMARKS
WILLISTON      CLEAR     49  38  65 SW6       30.28R
MINOT          FAIR      46  39  76 S5        30.26S
MINOT AFB      CLEAR     45  44  99 SW8       30.25S
$$

NDZ018>021-031>035-040>046-280400-
SOUTHWEST NORTH DAKOTA

CITY           SKY/WX    TMP DP  RH WIND       PRES   REMARKS
BISMARCK       CLOUDY    49  40  71 NW7       30.31S
DICKINSON      CLEAR     39  34  82 SW5       30.29S
GARRISON         N/A     41  37  86 SW3       30.28F
HETTINGER ARPT CLOUDY    43  38  82 W5        30.33S
$$

NDZ004>008-012>016-024-026-027-054-280400-
NORTHEAST NORTH DAKOTA

CITY           SKY/WX    TMP DP  RH WIND       PRES   REMARKS
GRAND FORKS    LGT RAIN  49  43  80 N10       30.25R
GRND FRKS AFB  DRIZZLE   48  45  87 N9        30.26S
DEVILS LAKE    CLOUDY    45  37  76 NW7       30.27R
$$

NDZ022-023-025-028>030-036>039-047>053-280400-
SOUTHEAST NORTH DAKOTA

CITY           SKY/WX    TMP DP  RH WIND       PRES   REMARKS
FARGO          MOCLDY    56  41  57 N22G31    30.21R
JAMESTOWN      LGT RAIN  47  44  90 N12       30.27R
$$



USA.gov is the U.S. government's official web portal to all federal, state and local government web resources and services.